Cape Byron Observation History
Time Wind Speed Temp Pressure Rel. Hum Rain
16/09:30pm E 14-17 kts 23.7°c 1012.3 hPa n/a 0.2mm
16/09:00pm E 13-15 kts 23.5°c 1012.1 hPa n/a 0.2mm
16/08:30pm E 15-18 kts 23.4°c 1011.2 hPa n/a 0.2mm
16/08:00pm ESE 17-19 kts 23.7°c 1011.0 hPa n/a 0.2mm
16/07:30pm ESE 15-18 kts 23.7°c 1010.2 hPa n/a 0.2mm
16/07:00pm ESE 15-17 kts 24.3°c 1010.1 hPa n/a 0.2mm
16/06:30pm E 14-16 kts 24.9°c 1009.4 hPa n/a 0.2mm
16/06:00pm ESE 16-18 kts 24.7°c 1008.8 hPa n/a 0.2mm
16/05:30pm ESE 18-21 kts 25.0°c 1008.2 hPa n/a 0.2mm
16/05:00pm ESE 18-21 kts 25.2°c 1007.9 hPa n/a 0.2mm
16/04:30pm ESE 16-19 kts 24.5°c 1008.1 hPa n/a 0.2mm
16/04:00pm SE 14-18 kts 24.9°c 1008.0 hPa n/a 0.2mm
16/03:30pm SE 13-17 kts 25.9°c 1008.0 hPa n/a 0.2mm
16/03:00pm SE 12-15 kts 26.9°c 1007.9 hPa n/a 0.2mm
16/02:30pm SE 13-16 kts 26.4°c 1007.9 hPa n/a 0.2mm
16/02:00pm S 17-19 kts 24.3°c 1008.0 hPa n/a 0.2mm
16/01:30pm S 19-21 kts 24.6°c 1008.0 hPa n/a 0.2mm
16/01:00pm S 18-20 kts 24.2°c 1008.1 hPa n/a 0.2mm
16/12:30pm S 20-22 kts 24.0°c 1007.9 hPa n/a 0.2mm
16/12:00pm S 22-25 kts 24.0°c 1007.8 hPa n/a 0.2mm
16/11:30am S 23-28 kts 24.2°c 1007.6 hPa n/a 0.2mm
16/11:06am SE 11-23 kts 25.2°c 1007.8 hPa n/a 0.2mm
16/11:00am ESE 7-10 kts 27.6°c 1007.6 hPa n/a 0.0mm
16/10:30am ESE 7-8 kts 27.3°c 1007.4 hPa n/a 0.0mm
16/10:00am SE 7-9 kts 26.3°c 1007.2 hPa n/a 0.0mm
16/09:30am N 3-6 kts 26.3°c 1007.1 hPa n/a 0.0mm
16/09:00am NNW 7-9 kts 25.0°c 1006.9 hPa n/a 8.0mm
16/08:30am NNW 7-12 kts 24.1°c 1006.8 hPa n/a 8.0mm
16/08:00am NNW 7-11 kts 23.1°c 1006.5 hPa n/a 8.0mm
16/07:30am NW 8-11 kts 22.7°c 1006.1 hPa n/a 8.0mm
16/07:00am NW 8-12 kts 22.3°c 1005.9 hPa n/a 8.0mm
16/06:30am NW 7-11 kts 22.2°c 1005.9 hPa n/a 8.0mm
16/06:00am NNW 9-13 kts 22.3°c 1005.6 hPa n/a 8.0mm
16/05:30am NW 11-17 kts 22.6°c 1005.0 hPa n/a 8.0mm
16/05:00am NNW 11-18 kts 22.2°c 1004.9 hPa n/a 8.0mm
16/04:30am NW 8-12 kts 22.0°c 1004.9 hPa n/a 7.8mm
16/04:00am NNW 6-10 kts 21.3°c 1005.1 hPa n/a 7.8mm
16/03:30am NW 8-15 kts 21.4°c 1004.7 hPa n/a 7.8mm
16/03:00am N 14-20 kts 22.2°c 1005.2 hPa n/a 7.4mm
16/02:30am NNW 13-17 kts 22.8°c 1005.9 hPa n/a 6.6mm
16/02:00am NNW 10-16 kts 23.0°c 1006.6 hPa n/a 6.4mm
16/01:30am NW 8-11 kts 22.9°c 1006.3 hPa n/a 6.4mm
16/01:00am N 13-19 kts 23.7°c 1005.6 hPa n/a 6.4mm
16/12:30am NE 19-23 kts 23.5°c 1005.5 hPa n/a 6.2mm
16/12:00am NNE 10-15 kts 22.7°c 1006.5 hPa n/a 6.2mm
Time Wind Speed Temp Pressure Rel. Hum Rain
15/11:30pm NW 3-6 kts 23.0°c 1008.0 hPa n/a 5.6mm
15/11:00pm NW 8-16 kts 24.4°c 1008.1 hPa n/a 0.0mm
15/10:47pm NW 11-22 kts 24.3°c 1008.1 hPa n/a 0.0mm
15/10:30pm NNW 18-26 kts 24.3°c 1006.0 hPa n/a 0.0mm
15/10:00pm N 19-26 kts 24.5°c 1006.2 hPa n/a 0.0mm
15/09:47pm N 18-28 kts 24.5°c 1005.8 hPa n/a 0.0mm
15/09:30pm N 18-24 kts 24.5°c 1005.8 hPa n/a 0.0mm
15/09:00pm N 21-26 kts 24.6°c 1005.0 hPa n/a 0.0mm
15/08:33pm N 17-27 kts 24.7°c 1005.8 hPa n/a 0.0mm
15/08:30pm N 18-27 kts 24.7°c 1005.7 hPa n/a 0.0mm
15/08:00pm N 19-29 kts 25.1°c 1005.3 hPa n/a 0.0mm
15/07:33pm N 19-29 kts 25.2°c 1004.9 hPa n/a 0.0mm
15/07:30pm N 20-29 kts 25.2°c 1004.9 hPa n/a 0.0mm
15/07:09pm N 19-29 kts 25.4°c 1005.0 hPa n/a 0.0mm
15/07:00pm N 19-26 kts 25.7°c 1004.9 hPa n/a 0.0mm
15/06:30pm N 19-26 kts 26.0°c 1004.6 hPa n/a 0.0mm
15/06:11pm N 17-27 kts 26.3°c 1004.5 hPa n/a 0.0mm
15/06:00pm N 18-27 kts 26.4°c 1004.4 hPa n/a 0.0mm
15/05:30pm N 19-24 kts 26.5°c 1004.8 hPa n/a 0.0mm
15/05:00pm N 17-24 kts 26.8°c 1005.1 hPa n/a 0.0mm
15/04:30pm N 19-25 kts 26.8°c 1005.5 hPa n/a 0.0mm
15/04:00pm N 18-25 kts 26.9°c 1005.6 hPa n/a 0.0mm
15/03:43pm N 18-28 kts 27.1°c 1006.1 hPa n/a 0.0mm
15/03:30pm N 19-26 kts 27.3°c 1005.9 hPa n/a 0.0mm
15/03:00pm N 16-26 kts 27.5°c 1006.4 hPa n/a 0.0mm
15/02:57pm N 16-26 kts 27.5°c 1006.5 hPa n/a 0.0mm
15/02:30pm N 17-25 kts 27.4°c 1006.6 hPa n/a 0.0mm
15/02:00pm N 16-22 kts 27.6°c 1007.0 hPa n/a 0.0mm
15/01:30pm NNE 16-24 kts 27.4°c 1007.3 hPa n/a 0.0mm
15/01:00pm N 15-22 kts 27.5°c 1008.0 hPa n/a 0.0mm
15/12:30pm N 13-19 kts 27.5°c 1008.6 hPa n/a 0.0mm
15/12:00pm NNE 13-21 kts 27.4°c 1008.9 hPa n/a 0.0mm
15/11:30am NNE 13-18 kts 26.9°c 1009.2 hPa n/a 0.0mm
15/11:00am N 13-17 kts 26.8°c 1009.6 hPa n/a 0.0mm
15/10:30am N 13-17 kts 26.8°c 1009.7 hPa n/a 0.0mm
15/10:00am N 9-13 kts 26.7°c 1009.8 hPa n/a 0.0mm
15/09:30am N 8-10 kts 26.1°c 1009.8 hPa n/a 0.0mm
15/09:00am NE 7-9 kts 26.1°c 1009.8 hPa n/a 0.0mm
15/08:30am NNE 1-4 kts 24.7°c 1010.1 hPa n/a 0.0mm
15/08:00am NNW 3-4 kts 23.9°c 1010.2 hPa n/a 0.0mm
15/07:30am W 4-7 kts 23.1°c 1010.2 hPa n/a 0.0mm
15/07:00am NW 3-5 kts 23.1°c 1009.9 hPa n/a 0.0mm
15/06:30am NNW 5-8 kts 22.9°c 1009.5 hPa n/a 0.0mm
15/06:00am NW 6-8 kts 22.5°c 1008.9 hPa n/a 0.0mm
15/05:30am NNW 5-7 kts 22.7°c 1008.5 hPa n/a 0.0mm
15/05:00am NNW 6-9 kts 22.8°c 1008.6 hPa n/a 0.0mm
15/04:30am NNW 7-10 kts 22.8°c 1008.6 hPa n/a 0.0mm
15/04:00am NNW 7-10 kts 22.9°c 1008.7 hPa n/a 0.0mm
15/03:30am NNW 6-10 kts 22.9°c 1009.0 hPa n/a 0.0mm
15/03:00am NNW 6-10 kts 23.0°c 1009.2 hPa n/a 0.0mm
15/02:30am NNW 7-10 kts 23.0°c 1009.4 hPa n/a 0.0mm
15/02:00am NNW 7-10 kts 23.1°c 1009.7 hPa n/a 0.0mm
15/01:30am NNW 8-12 kts 23.1°c 1009.9 hPa n/a 0.0mm
15/01:00am NNW 7-11 kts 23.1°c 1010.3 hPa n/a 0.0mm
15/12:30am NNW 8-12 kts 23.2°c 1010.8 hPa n/a 0.0mm
15/12:00am NNW 8-11 kts 23.4°c 1011.3 hPa n/a 0.0mm
Time Wind Speed Temp Pressure Rel. Hum Rain
14/11:30pm N 10-15 kts 24.2°c 1011.3 hPa n/a 0.0mm
14/11:00pm N 10-15 kts 24.3°c 1011.6 hPa n/a 0.0mm
14/10:30pm NNE 9-13 kts 24.3°c 1011.6 hPa n/a 0.0mm
14/10:00pm NE 11-16 kts 24.3°c 1011.3 hPa n/a 0.0mm
14/09:30pm NE 11-16 kts 24.2°c 1011.4 hPa n/a 0.0mm
14/09:00pm NE 12-15 kts 24.3°c 1011.5 hPa n/a 0.0mm
14/08:30pm NE 11-13 kts 24.5°c 1011.7 hPa n/a 0.0mm
14/08:00pm NE 12-15 kts 24.5°c 1011.3 hPa n/a 0.0mm
14/07:30pm NE 9-12 kts 25.9°c 1011.2 hPa n/a 0.0mm
14/07:00pm NE 8-11 kts 27.6°c 1011.1 hPa n/a 0.0mm
14/06:30pm NE 9-12 kts 28.8°c 1010.9 hPa n/a 0.0mm
14/06:00pm ENE 8-11 kts 29.2°c 1010.8 hPa n/a 0.0mm
14/05:30pm ENE 8-12 kts 29.4°c 1010.9 hPa n/a 0.0mm
14/05:00pm ENE 7-12 kts 28.4°c 1011.0 hPa n/a 0.0mm
14/04:30pm ENE 8-11 kts 29.0°c 1011.3 hPa n/a 0.0mm
14/04:00pm ENE 9-12 kts 28.6°c 1011.5 hPa n/a 0.0mm
14/03:30pm ENE 9-12 kts 29.7°c 1011.8 hPa n/a 0.0mm
14/03:00pm E 10-13 kts 29.7°c 1012.1 hPa n/a 0.0mm
14/02:30pm ENE 9-12 kts 29.6°c 1012.1 hPa n/a 0.0mm
14/02:00pm ENE 10-13 kts 29.4°c 1012.4 hPa n/a 0.0mm
14/01:30pm ENE 9-11 kts 29.9°c 1012.8 hPa n/a 0.0mm
14/01:00pm ENE 9-10 kts 29.5°c 1013.0 hPa n/a 0.0mm
14/12:30pm E 8-9 kts 28.9°c 1013.5 hPa n/a 0.0mm
14/12:00pm E 8-9 kts 28.5°c 1013.8 hPa n/a 0.0mm
14/11:30am E 7-8 kts 28.1°c 1014.0 hPa n/a 0.0mm
14/11:00am SSE 6-7 kts 25.6°c 1014.3 hPa n/a 0.0mm
14/10:30am SE 5-6 kts 26.5°c 1014.2 hPa n/a 0.0mm
14/10:00am ESE 5-7 kts 25.4°c 1014.3 hPa n/a 0.0mm
14/09:30am E 5-7 kts 25.9°c 1014.4 hPa n/a 0.0mm
14/09:00am S 2-5 kts 25.0°c 1014.5 hPa n/a 0.0mm
14/08:30am SSW 5-7 kts 23.7°c 1014.5 hPa n/a 0.0mm
14/08:00am SSW 4-5 kts 23.1°c 1014.4 hPa n/a 0.0mm
14/07:30am SW 4-5 kts 22.7°c 1014.3 hPa n/a 0.0mm
14/07:00am S 1-3 kts 22.5°c 1014.0 hPa n/a 0.0mm
14/06:30am CALM 0-4 kts 21.8°c 1013.8 hPa n/a 0.0mm
14/06:00am SE 3-4 kts 21.7°c 1013.7 hPa n/a 0.0mm
14/05:30am SW 5-6 kts 21.5°c 1013.7 hPa n/a 0.0mm
14/05:00am WSW 6-8 kts 21.3°c 1013.7 hPa n/a 0.0mm
14/04:30am WSW 7-9 kts 21.4°c 1013.8 hPa n/a 0.0mm
14/04:00am W 7-8 kts 21.6°c 1013.7 hPa n/a 0.0mm
14/03:30am W 8-9 kts 21.3°c 1013.8 hPa n/a 0.0mm
14/03:00am WNW 6-9 kts 20.7°c 1013.9 hPa n/a 0.0mm
14/02:30am WNW 7-9 kts 20.9°c 1014.3 hPa n/a 0.0mm
14/02:00am WNW 6-9 kts 20.9°c 1014.6 hPa n/a 0.0mm
14/01:30am WNW 7-9 kts 21.3°c 1014.9 hPa n/a 0.0mm
14/01:00am WNW 6-11 kts 21.6°c 1015.4 hPa n/a 0.0mm
14/12:30am NE 6-9 kts 22.6°c 1015.6 hPa n/a 0.0mm
14/12:00am NNE 8-9 kts 22.9°c 1015.9 hPa n/a 0.0mm